STARLINK-11238 [DTC]

Last updated on Tue Oct 01 2024 00:02:04 GMT+0000 (Coordinated Universal Time)

1 60928U 24155E 24274.40228508 .00005621 00000+0 38318-4 0 9990 2 60928 53.1531 51.2120 0000873 81.2424 278.8695 15.76727735 5948
UTC large
Height (km)
Speed (km/s)
/
Latitude / Longitude
Inclination (degrees)
Orbital Period (minutes)
Azimuth
Elevation
Range (km)
Doppler Factor

Next 0 passes for location: London (51.5072 / 0.1276)

Sorry there are no passes over London.